Rexburg, ID

2:21 AM MST on February 18, 2018 (GMT -0700)
Rexburg-Madison County

Weather History for KRXE - May, 2014

Change the Weather History Date:

Friday, May 16, 2014

  Actual Average Record
Temperature  
Mean Temperature 58 °F 53 °F  
Max Temperature 69 °F 66 °F 84 °F (2006)
Min Temperature 47 °F 39 °F 32 °F (2009)
Degree Days  
Heating Degree Days 7 12  
Month to date heating degree days 241 236  
Since 1 July heating degree days 7545 7801  
Cooling Degree Days 0 0  
Month to date cooling degree days 0 0  
Year to date cooling degree days 0 0  
Growing Degree Days 8 (Base 50)    
Moisture  
Dew Point 39 °F    
Average Humidity 53    
Maximum Humidity 80    
Minimum Humidity 26    
Precipitation  
Precipitation 0.01 in 0.05 in 0.66 in (2015)
Month to date precipitation 0.51 0.86  
Year to date precipitation 4.98 4.97  
Sea Level Pressure  
Sea Level Pressure 29.99 in    
Wind  
Wind Speed 6 mph (East)    
Max Wind Speed 28 mph    
Max Gust Speed 36 mph    
Visibility 10 miles    
Events Rain    
T = Trace of Precipitation, MM = Missing Value Source: NWS Daily Summary

Daily Weather History Graph

Daily Weather History Graph

Search for Another Location

Airport or City:

Trip Planner

Search our weather history database for the weather conditions in past years. The results will help you decide how hot, cold, wet, or windy it might be!

Date:

Astronomy

May. 16, 2014 Rise Set
Actual Time 6:00 AM MDT 8:47 PM MDT
Civil Twilight 5:27 AM MDT 9:20 PM MDT
Nautical Twilight 4:45 AM MDT 10:03 PM MDT
Astronomical Twilight 3:56 AM MDT 10:52 PM MDT
Moon 10:57 PM MDT (5/16) 7:45 AM MDT (5/16)
Length of Visible Light 15h 53m
Length of Day
14h 46m
Waning Gibbous, 95% of the Moon is Illuminated
May 16
Waning Gibbous
May 21
Last Quarter
May 28
New
Jun 5
First Quarter
Jun 12
Full

Hourly Weather History & Observations

Time (MDT) Temp. Dew Point Humidity Pressure Visibility Wind Dir Wind Speed Gust Speed Precip Events Conditions
12:53 AM 55.9 °F 32.0 °F 40% 30.00 in 10.0 mi Calm Calm - N/A   Clear
1:53 AM 57.0 °F 30.9 °F 37% 29.99 in 10.0 mi South 8.1 mph - N/A   Clear
2:53 AM 52.0 °F 36.0 °F 54% 29.99 in 10.0 mi Calm Calm - N/A   Clear
3:53 AM 48.9 °F 39.0 °F 69% 29.99 in 10.0 mi East 4.6 mph - N/A   Clear
4:53 AM 48.9 °F 37.9 °F 66% 29.99 in 10.0 mi Calm Calm - N/A   Clear
5:53 AM 48.0 °F 39.0 °F 71% 30.00 in 10.0 mi ENE 4.6 mph - N/A   Mostly Cloudy
6:53 AM 48.0 °F 39.0 °F 71% 30.03 in 10.0 mi NE 5.8 mph - N/A   Overcast
7:53 AM 52.0 °F 39.0 °F 61% 30.03 in 10.0 mi Calm Calm - N/A   Overcast
8:53 AM 53.1 °F 39.0 °F 59% 30.03 in 10.0 mi NE 8.1 mph - N/A   Clear
9:53 AM 57.9 °F 39.0 °F 49% 30.02 in 10.0 mi Variable 4.6 mph - N/A   Clear
10:53 AM 60.1 °F 37.9 °F 44% 30.03 in 10.0 mi NE 9.2 mph - N/A   Scattered Clouds
11:53 AM 62.1 °F 36.0 °F 38% 30.02 in 10.0 mi NNE 6.9 mph - N/A   Mostly Cloudy
12:53 PM 64.9 °F 36.0 °F 34% 29.98 in 10.0 mi SSE 9.2 mph - N/A   Mostly Cloudy
2:53 PM 69.1 °F 34.0 °F 27% 29.94 in 10.0 mi SSE 5.8 mph - N/A   Partly Cloudy
3:53 PM 66.9 °F 33.1 °F 28% 29.95 in 10.0 mi SW 9.2 mph - N/A   Mostly Cloudy
4:53 PM 57.9 °F 45.0 °F 62% 30.02 in 10.0 mi WSW 13.8 mph 24.2 mph 0.00 in Rain Light Rain
5:53 PM 59.0 °F 42.1 °F 53% 29.96 in 10.0 mi SE 3.5 mph - 0.00 in   Clear
6:53 PM 59.0 °F 42.1 °F 53% 29.97 in 10.0 mi Calm Calm - N/A   Scattered Clouds
7:53 PM 57.9 °F 44.1 °F 60% 29.96 in 10.0 mi ENE 6.9 mph - 0.00 in Rain Light Rain
9:53 PM 54.0 °F 44.1 °F 69% 29.94 in 10.0 mi NE 8.1 mph - N/A   Overcast
10:53 PM 52.0 °F 44.1 °F 74% 29.95 in 10.0 mi NE 5.8 mph - N/A   Overcast
11:53 PM 50.0 °F 45.0 °F 83% 29.94 in 10.0 mi NE 4.6 mph - 0.01 in   Scattered Clouds